GSAT0205 (GALILEO 9)

Last updated on Thu Oct 30 2025 00:02:35 GMT+0000 (Coordinated Universal Time)

1 40889U 15045A 25302.12225975 .00000006 00000+0 00000+0 0 9993 2 40889 55.0208 227.9903 0004892 29.1960 330.8513 1.70472905 63077
UTC large
Height (km)
Speed (km/s)
/
Latitude / Longitude
Inclination (degrees)
Orbital Period (minutes)
Azimuth
Elevation
Range (km)
Doppler Factor

Next 0 passes for location: London (51.5072 / 0.1276)

Sorry there are no passes over London.